CZ-6A DEB, 55878

Orbit data source: Space-Track

CZ-6A DEB, 55878 is space debris in SSO originally from a launch on Fri, 11 Nov 2022 UTC launched from the Taiyaun Space Center, China (TSC). Debris objects in space refer to the collection of defunct objects orbiting the Earth. Examples of debris include non-operational satellites, rocket bodies, and fragments generated from explosions, collisions, or faulty payload assembly.

Loading next visibility...
Identifier
55878, 2022-151AAA
Orbit
SSO
Country
Flag of CNCN / PRC
Related business
Manufacturer
SAST
Mission
Spacecraft
Bus & Motor
Unknown
Mass
Unknown
Launch date (UTC)
2022-11-11 (4 years ago)
Launch vehicle
Unknown
Launch site
Taiyaun Space Center, China (TSC)
Object type
Payload
Rocket body
Debris
Shape & HBR
Unknown shape, 0.1 m
Radar Cross Section
Medium (>0.1 m² and <1 m²)

Expand to show TLE details & history
Last TLE update: 19 hours ago

TLE from 19 hours ago
0 CZ-6A DEB
1 55878U 22151AAA 26235.31582152  .01261043  00000-0  70329-2 0  9999
2 55878  98.6171 356.2179 0029474 282.9391  76.8579 15.76083832190757
Epoch: 2026-08-23T07:34Z
TLE epoch observation values (Epoch: 2026-08-23T07:34:46.979Z)
Latitude
-0.00005°
Longitude
-89.09147°
Altitude
340.228 km
Speed
7.707 km/s
True Right ascension
23h 44m 52s
True Declination
0° 00' 00"
Sunlit
Object was in full shadow at epoch
Visualization orbit readout
Latitude
Unknown
Longitude
Unknown
Altitude
Unknown
Speed
Unknown
Apparent Right ascension
Unknown
Apparent Declination
Unknown
Sunlit
N/A
Visualization observer readout
Local Sidereal Time
17:50:09
Azimuth
Unknown
Elevation
Unknown
Doppler factor
Unknown
Orbital elements
Apogee altitude
358.294 km
Perigee altitude
318.701 km
Semi-major axis
6,716.635 km
Eccentricity
0.00295
Inclination
98.6171°
RAAN
356.2179°
Arg. of periapsis
282.9391°
True anomaly
77.18708°
Mean anomaly
76.8579°
Eccentric anomaly
77.02246°
Mean motion
3.9429 °/min
Orbital period
91.3 mins
BSTAR
0.0070329
Loading maneuver chart data...
Computing Atmospheric mass density...
Loading historical data...
Loading historical data...
Loading historical data...
Loading historical data...
Loading historical data...
Loading historical data...
Loading historical data...

Documentation

Showing up to 5 results
|